Torna al catalogo

LPNTSAT-001

AttivoNavigazioneSSO
NORAD 68408·PAYLOAD·🇪🇺 EU

Lanciato Mar 28, 2026 da Rocket Lab Launch Complex 1

Loading…

Prossimi Passaggi (prossime 24 ore)

TLE

AggiornatoSource: Space-Track

Epoca: Sep 13, 2026, 15:04 UTC

1 68408U 26065A   26256.62827672  .00002100  00000-0  10348-3 0  9998
2 68408  97.3864 135.2198 0017827  58.8396 301.4584 15.18908250 25683

Traccia LPNTSAT-001 in tempo reale con AllMySat

Download on the App Store